Yoho Park AWS, British Columbia

7:02 PM MST on December 05, 2016 (GMT -0700)
Yoho Park

Weather History for CWYL - August, 2013

Change the Weather History Date:

Friday, August 30, 2013

  Actual Average Record
Temperature  
Mean Temperature 50 °F -  
Max Temperature 56 °F - - ()
Min Temperature 44 °F - - ()
Degree Days  
Heating Degree Days 15    
Moisture  
Dew Point 47 °F    
Average Humidity 94    
Maximum Humidity 99    
Minimum Humidity 70    
Precipitation  
Precipitation 0.04 in - - ()
Sea Level Pressure  
Sea Level Pressure 30.07 in    
Wind  
Wind Speed 10 mph ()    
Max Wind Speed 16 mph    
Max Gust Speed -    
T = Trace of Precipitation, MM = Missing Value Source: Averaged Metar Reports

Daily Weather History Graph

Daily Weather History Graph

Search for Another Location

Airport or City:

Trip Planner

Search our weather history database for the weather conditions in past years. The results will help you decide how hot, cold, wet, or windy it might be!

Date:

Astronomy

Aug. 30, 2013 Rise Set
Actual Time 6:55 AM MDT 8:35 PM MDT
Civil Twilight 6:20 AM MDT 9:10 PM MDT
Nautical Twilight 5:37 AM MDT 9:52 PM MDT
Astronomical Twilight 4:49 AM MDT 10:40 PM MDT
Moon 1:16 AM MDT (8/30) 5:14 PM MDT (8/30)
Length of Visible Light 14h 49m
Length of Day
13h 39m
Waning Crescent, 28% of the Moon is Illuminated
Aug 30
Waning Crescent
Sep 5
New
Sep 12
First Quarter
Sep 19
Full
Sep 26
Last Quarter

Hourly Weather History & Observations

Time (MDT) Temp. Windchill Dew Point Humidity Pressure Visibility Wind Dir Wind Speed Gust Speed Precip Events Conditions
12:00 AM 49.6 °F - 49.3 °F 99% 29.99 in - West 11.5 mph - 0.03 in   Unknown
1:00 AM 49.3 °F - 48.9 °F 99% 29.98 in - West 16.1 mph - N/A   Unknown
2:00 AM 49.1 °F - 48.7 °F 99% 29.98 in - West 12.7 mph - N/A   Unknown
3:00 AM 48.4 °F - 48.0 °F 99% 29.98 in - WSW 11.5 mph - N/A   Unknown
4:00 AM 46.9 °F - 46.6 °F 99% 29.99 in - SW 9.2 mph - N/A   Unknown
5:00 AM 46.8 °F - 46.6 °F 99% 30.00 in - WSW 11.5 mph - N/A   Unknown
6:00 AM 48 °F - 48 °F 99% 30.00 in - WSW 12.7 mph - -  
6:00 AM 48.0 °F - 47.8 °F 99% 30.00 in - WSW 12.7 mph - N/A   Unknown
7:00 AM 47.8 °F - 47.7 °F 99% 30.01 in - WSW 11.5 mph - 0.02 in   Unknown
8:00 AM 48.0 °F - 47.8 °F 99% 30.03 in - WSW 11.5 mph - N/A   Unknown
9:00 AM 48.4 °F - 48.0 °F 99% 30.05 in - West 15.0 mph - N/A   Unknown
10:00 AM 48.9 °F - 48.4 °F 98% 30.05 in - West 10.4 mph - N/A   Unknown
11:00 AM 50.5 °F - 49.5 °F 96% 30.05 in - WSW 8.1 mph - N/A   Unknown
12:00 PM 51 °F - 49 °F 92% 30.05 in - West 12.7 mph - -  
12:00 PM 51.3 °F - 49.3 °F 93% 30.05 in - West 12.7 mph - N/A   Unknown
1:00 PM 53.4 °F - 50.2 °F 89% 30.03 in - West 11.5 mph - N/A   Unknown
2:00 PM 54.9 °F - 49.5 °F 82% 30.05 in - WSW 16.1 mph - N/A   Unknown
3:00 PM 48.9 °F - 45.3 °F 87% 30.10 in - West 6.9 mph - N/A   Unknown
4:00 PM 48.6 °F - 47.7 °F 97% 30.13 in - WSW 6.9 mph - 0.04 in   Unknown
5:00 PM 51.6 °F - 47.5 °F 86% 30.12 in - SW 8.1 mph - 0.02 in   Unknown
6:00 PM 51 °F - 44 °F 70% 30.13 in - WSW 13.8 mph - -  
6:00 PM 50.9 °F - 44.2 °F 78% 30.13 in - WSW 13.8 mph - N/A   Unknown
7:00 PM 48.7 °F - 46.6 °F 92% 30.15 in - WSW 11.5 mph - N/A   Unknown
8:00 PM 46.8 °F - 45.1 °F 94% 30.16 in - WSW 6.9 mph - N/A   Unknown
9:00 PM 45.1 °F 40.8 °F 44.2 °F 97% 30.18 in - West 8.1 mph - N/A   Unknown
10:00 PM 44.1 °F 39.5 °F 43.3 °F 97% 30.19 in - SW 8.1 mph - N/A   Unknown
11:00 PM 44.1 °F 39.5 °F 43.3 °F 97% 30.19 in - SW 8.1 mph - N/A   Unknown